Location: Lafig�re
(44.4503°N, 4.0357°E)
Time: 15:39:12
(UTC+00:00)

Vanguard 2 Rocket - Pass Details

Date: 29 January 2021
Orbit: 554 x 3325 km, 32.9° (Epoch: 06 March)

Event Time Altitude Azimuth Distance (km) Brightness Sun altitude
Rises 10:30:01 0° 199° (SSW) 7,270 12.2 24.7°
Reaches altitude 10° 10:36:48 10° 187° (S) 6,265 12.4 25.1°
Maximum altitude 10:49:44 22° 146° (SE) 4,921 12.6 25.9°
Drops below altitude 10° 11:00:28 10° 103° (ESE) 5,165 11.2 26.4°
Sets 11:05:10 0° 90° (E) 5,750 11.2 26.6°
